Regional Weather Roundup
Issued by NWS Nashville, TN

Current Version | Previous Version | Text Only | Print | Product List | Glossary On
Versions: 1 2 3 4 5 6 7 8 9 10 11 12 13 14 15 16 17 18 19 20 21 22 23 24 25 26 27 28 29 30 31 32 33 34 35 36 37 38 39 40 41 42 43 44 45 46 47 48 49 50
000
ASUS44 KOHX 140810
RWROHX
MIDDLE TENNESSEE HOURLY WEATHER ROUNDUP
NATIONAL WEATHER SERVICE NASHVILLE TN
200 AM CST SUN FEB 14 2016

NOTE: "FAIR" INDICATES FEW OR NO CLOUDS BELOW 12,000 FEET WITH
NO SIGNIFICANT WEATHER AND/OR OBSTRUCTIONS TO VISIBILITY.

* THESE REPORTS ARE NOT UNDER NWS QUALITY CONTROL AND MAY NOT
  REPORT WEATHER SUCH AS PRECIPITATION AND FOG.


TNZ005>011-023>034-057-059-062>066-078-080-140900
...NORTHERN MIDDLE TENNESSEE...

CITY           SKY/WX    TMP DP  RH WIND       PRES   REMARKS
CLARKSVILLE    CLOUDY    25   7  46 E9        30.37F WCI  15
CROSSVILLE     CLOUDY    21   4  47 E6        30.33F WCI  13
DICKSON        CLOUDY    25   5  42 VRB6      30.33F WCI  18
NASHVILLE      CLOUDY    27   4  37 E10       30.38F WCI  17
PORTLAND       CLOUDY   N/A N/A N/A E6        30.35F
ROCKWOOD       CLOUDY    18   5  56 E3        30.34S
SMYRNA         PTCLDY    26   7  44 E6        30.40F WCI  19
SPARTA         CLOUDY    23   9  54 E3        30.36F
$$
TNZ056-058-060-061-075>077-079-093>097-140900
...SOUTHERN MIDDLE TENNESSEE...

CITY           SKY/WX    TMP DP  RH WIND       PRES   REMARKS
COLUMBIA       CLOUDY    27   9  46 E6        30.34F WCI  20
FAYETTEVILLE   CLOUDY    27  10  50 NE6       30.33F WCI  20
LEWISBURG      CLOUDY    25   7  46 E5        30.36F WCI  19
MCMINNVILLE    CLOUDY    25   7  46 NE7       30.35F WCI  17
SHELBYVILLE    CLOUDY    27  10  50 E6        30.37F WCI  20
TULLAHOMA      MOCLDY    25   5  42 E7        30.33F WCI  17
WINCHESTER     CLOUDY    25   9  50 E3        30.35F
$$


...KEY TO REMARKS...
VSB - VISIBILITY IN MILES
WCI - WIND CHILL INDEX
HX  - HEAT INDEX




USA.gov is the U.S. government's official web portal to all federal, state and local government web resources and services.